Location: Newark
(42.3578°N, 71.0617°W)
Time: 14:56:46
(UTC+00:00)

X-37B - Visible Passes

Search period start: 29 September 2020 00:00
Search period end: 09 October 2020 00:00
Orbit: 386 x 387 km, 45.0° (Epoch: 18 September)

Date Brightness Start Highest point End Pass type
(mag) Time Alt. Az. Time Alt. Az. Time Alt. Az.
01 Oct 3.2 00:06:02 10° SSW 00:06:27 12° S 00:06:27 12° S visible
01 Oct 2.8 23:08:58 10° SSE 23:10:07 12° SE 23:11:02 11° ESE visible
02 Oct 3.7 00:43:08 10° WSW 00:43:20 11° SW 00:43:20 11° SW visible
02 Oct 1.3 23:44:50 10° SW 23:47:46 35° SSE 23:47:47 35° SSE visible
03 Oct 2.2 22:46:54 10° SSW 22:49:20 20° SE 22:51:47 10° E visible
04 Oct 2.2 00:22:31 10° WSW 00:24:23 33° WSW 00:24:23 33° WSW visible
04 Oct 0.7 23:24:00 10° WSW 23:27:07 59° SSE 23:28:36 27° E visible
05 Oct 4.1 01:00:42 10° W 01:00:52 11° W 01:00:52 11° W visible
06 Oct 0.9 00:02:01 10° W 00:05:00 62° NW 00:05:00 62° NW visible
06 Oct 0.5 23:03:23 10° WSW 23:06:34 88° N 23:09:03 15° ENE visible
07 Oct 3.4 00:40:15 10° WNW 00:41:19 19° WNW 00:41:19 19° WNW visible
07 Oct 1.1 23:41:35 10° W 23:44:41 52° N 23:45:20 43° NE visible
08 Oct 0.9 22:42:53 10° W 22:46:02 64° NNW 22:49:12 10° ENE visible
